DW4230 Weather Reports


Display with metric or nautical units.
time (UTC)temp
F
wind
direction
speed
MPH
gust
MPH
rain 1hr
in
rain 24hr
in
rain mn
in
humidity
%
barometer
mb
20260506214603 56 238 16.0 29.0 0.00 0.00 0.00 90 1008.4
20260506213046 56 211 14.0 23.0 0.00 0.00 0.00 90 1008.6
20260506211611 56 246 14.0 27.0 0.00 0.00 0.00 90 1008.9
20260506210005 57 124 14.0 25.0 0.00 0.00 0.00 89 1009.0
20260506204602 56 231 11.0 23.0 0.00 0.00 0.00 89 1009.0
20260506203108 56 124 15.0 25.0 0.00 0.00 0.00 88 1009.0
20260506201527 57 239 13.0 29.0 0.00 0.00 0.00 87 1009.2
20260506200032 57 270 14.0 24.0 0.00 0.00 0.00 87 1009.2
20260506194546 57 247 12.0 25.0 0.00 0.00 0.00 87 1009.5
20260506193030 57 124 15.0 28.0 0.00 0.00 0.00 86 1009.6
20260506191535 57 124 12.0 22.0 0.00 0.00 0.00 86 1009.7
20260506190039 57 239 12.0 26.0 0.00 0.00 0.00 86 1009.9
20260506184612 58 124 15.0 26.0 0.00 0.00 0.00 85 1009.7
20260506183100 58 124 14.0 30.0 0.00 0.00 0.00 85 1010.2
20260506181505 58 241 14.0 24.0 0.00 0.00 0.00 85 1010.5
20260506180107 58 227 14.0 29.0 0.00 0.00 0.00 85 1010.7
20260506174502 58 268 13.0 26.0 0.00 0.00 0.00 84 1011.2
20260506173006 59 124 14.0 24.0 0.00 0.00 0.00 84 1011.1
20260506171519 59 124 14.0 28.0 0.00 0.00 0.00 84 1011.2
20260506170023 59 124 17.0 26.0 0.00 0.00 0.00 85 1011.3
20260506164537 58 234 15.0 28.0 0.00 0.00 0.00 85 1011.7
20260506163025 58 124 14.0 28.0 0.00 0.00 0.00 85 1011.7
20260506161617 58 124 12.0 20.0 0.00 0.00 0.00 85 1012.0
20260506160113 58 260 12.0 23.0 0.00 0.00 0.00 85 1012.3
20260506154550 58 124 11.0 23.0 0.00 0.00 0.00 85 1012.6
20260506153039 57 272 13.0 26.0 0.00 0.00 0.00 85 1012.7
20260506151554 58 239 12.0 23.0 0.00 0.00 0.00 85 1012.8
20260506150031 58 124 11.0 24.0 0.00 0.00 0.00 84 1012.7
20260506144518 58 250 12.0 21.0 0.00 0.00 0.00 85 1012.7
20260506143015 58 271 9.0 19.0 0.00 0.00 0.00 86 1012.6
20260506141613 57 239 8.0 19.0 0.00 0.00 0.00 85 1012.5
20260506140108 58 124 10.0 22.0 0.00 0.00 0.00 85 1012.6
20260506134600 58 124 12.0 22.0 0.00 0.00 0.00 85 1012.9
20260506133035 58 124 9.0 18.0 0.00 0.00 0.00 86 1012.9
20260506131534 57 124 10.0 19.0 0.00 0.00 0.00 86 1012.8
20260506130013 57 202 11.0 19.0 0.00 0.00 0.00 86 1012.5
20260506124511 57 253 8.0 18.0 0.00 0.00 0.00 87 1012.6
20260506123040 57 124 9.0 22.0 0.00 0.00 0.00 87 1012.6
20260506121503 57 202 10.0 22.0 0.00 0.00 0.00 87 1012.4
20260506120125 56 193 12.0 25.0 0.00 0.00 0.00 88 1012.8
20260506114548 56 264 13.0 21.0 0.00 0.00 0.00 89 1012.9
20260506113110 55 124 14.0 23.0 0.00 0.00 0.00 89 1012.9
20260506111605 56 124 10.0 18.0 0.00 0.00 0.00 89 1012.9
20260506110012 56 124 8.0 16.0 0.00 0.00 0.00 90 1013.1
20260506104504 55 124 8.0 18.0 0.00 0.00 0.00 91 1013.2
20260506103025 55 124 9.0 19.0 0.00 0.00 0.00 92 1012.8
20260506101529 54 263 8.0 15.0 0.00 0.00 0.00 92 1013.0
20260506100054 54 202 9.0 16.0 0.00 0.00 0.00 93 1012.8
20260506094546 54 262 8.0 16.0 0.00 0.00 0.00 92 1012.8
20260506093051 54 124 10.0 19.0 0.00 0.00 0.00 92 1012.8
20260506091532 54 124 10.0 20.0 0.00 0.00 0.00 92 1013.1
20260506090018 54 258 8.0 16.0 0.00 0.00 0.00 92 1013.1
20260506084523 54 260 7.0 15.0 0.00 0.00 0.00 92 1013.2
20260506083041 54 260 8.0 15.0 0.00 0.00 0.00 92 1013.3
20260506081536 54 258 8.0 19.0 0.00 0.00 0.00 92 1013.2
20260506073104 54 275 10.0 17.0 0.00 0.00 0.00 92 1013.2
20260506071548 54 256 10.0 17.0 0.00 0.00 0.00 92 1013.4
20260506070108 54 264 10.0 17.0 0.00 0.00 0.00 92 1013.2
20260506061526 54 124 12.0 20.0 0.00 0.00 0.00 91 1013.0
20260506060108 54 124 11.0 23.0 0.00 0.00 0.00 91 1013.2
20260506044512 54 235 13.0 23.0 0.00 0.00 0.00 90 1013.5
20260506043015 54 124 11.0 19.0 0.00 0.00 0.00 90 1013.5
20260506041512 54 124 10.0 17.0 0.00 0.00 0.00 90 1013.4
20260506040011 54 263 10.0 19.0 0.00 0.00 0.00 90 1013.5
20260506034605 54 261 9.0 16.0 0.00 0.00 0.00 90 1013.6
20260506033115 54 280 12.0 20.0 0.00 0.00 0.00 89 1013.5
20260506031515 54 262 10.0 23.0 0.00 0.00 0.00 89 1013.4
20260506030021 54 260 14.0 19.0 0.00 0.00 0.00 89 1013.2
20260506024611 54 124 13.0 20.0 0.00 0.00 0.00 88 1013.2
20260506023100 54 258 10.0 18.0 0.00 0.00 0.00 87 1013.1
20260506021616 54 124 10.0 19.0 0.00 0.00 0.00 86 1013.2
20260506020009 54 221 11.0 18.0 0.00 0.00 0.00 85 1013.3
20260506014511 54 253 11.0 18.0 0.00 0.00 0.00 85 1013.3
20260506013101 54 265 10.0 16.0 0.00 0.00 0.00 85 1013.3
20260506011529 55 262 7.0 15.0 0.00 0.00 0.00 85 1013.3
20260506010035 54 265 6.0 15.0 0.00 0.00 0.00 85 1013.3
20260506004555 54 267 5.0 14.0 0.00 0.00 0.00 86 1013.0
20260506003018 54 124 8.0 16.0 0.00 0.00 0.00 87 1012.3
20260506001509 54 124 7.0 15.0 0.00 0.00 0.00 87 1011.8
20260506000022 54 258 11.0 18.0 0.00 0.00 0.00 87 1011.8
20260505234531 54 281 12.0 18.0 0.00 0.00 0.00 86 1011.8
20260505233015 55 263 7.0 16.0 0.00 0.00 0.00 86 1011.9
20260505231614 55 269 10.0 17.0 0.00 0.00 0.00 87 1011.5
20260505230056 54 124 9.0 20.0 0.00 0.00 0.00 87 1011.4
20260505224604 54 124 12.0 18.0 0.00 0.00 0.00 87 1011.3
20260505223051 55 268 11.0 17.0 0.00 0.00 0.00 86 1011.4
20260505221551 55 258 10.0 18.0 0.00 0.00 0.00 85 1011.2
20260505220027 56 260 13.0 21.0 0.00 0.00 0.00 84 1011.3